Regional Weather Roundup
Issued by NWS

Home | Current Version | Previous Version | Text Only | Print | Product List | Glossary Off
Versions: 1 2 3 4 5 6 7 8 9 10 11 12 13 14 15 16 17 18 19 20 21 22 23 24 25 26 27 28 29 30 31 32 33 34 35 36 37 38 39 40 41 42 43 44 45 46 47 48 49 50

000
ASUS43 KDMX 031907
RWRIA

WEATHER ROUNDUP FOR IOWA
NATIONAL WEATHER SERVICE DES MOINES IA
200 PM CDT SUN MAY 03 2015

NOTE: "FAIR" INDICATES FEW OR NO CLOUDS BELOW 12,000 FEET WITH NO
SIGNIFICANT WEATHER AND/OR OBSTRUCTIONS TO VISIBILITY.

* - THESE STATIONS ARE NOT NWS STATIONS...THUS NOT UNDER NWS
QUALITY CONTROL.  THEY ALSO DO NOT REPORT WEATHER SUCH
AS PRECIPITATION OR FOG.

IAZ001>003-012>014-020>022-031>034-043>046-032000-
   NORTHWEST IOWA

CITY           SKY/WX    TMP DP  RH WIND       PRES   REMARKS
CARROLL *      SUNNY     81  59  47 S13G18    29.77S HX  81
CHEROKEE *     SUNNY     82  55  39 SE3       29.74S HX  82
DENISON *      SUNNY     81  63  54 S13       29.74F HX  82
LE MARS *      SUNNY     82  55  39 SE8       29.74F HX  82
ORANGE CITY *  SUNNY     82  52  34 SE8       29.74F HX  81
SHELDON *      SUNNY     82  59  44 CALM      29.74F HX  82
SIOUX CITY     SUNNY     82  55  39 SW6       29.73F HX  81
SPENCER        MOSUNNY   82  53  36 S3        29.76F HX  81
STORM LAKE *   SUNNY     82  54  36 SW13G18   29.76F HX  81
$$

IAZ055>058-069>071-079>083-090>094-032000-
   SOUTHWEST IOWA

CITY           SKY/WX    TMP DP  RH WIND       PRES   REMARKS
ATLANTIC *     SUNNY     79  61  53 S18       29.77F HX  80
AUDUBON *      SUNNY     79  63  57 S9        29.78F HX  80
CLARINDA *     SUNNY     81  61  50 S15G23    29.79S HX  81
COUNCIL BLFS * SUNNY     79  64  61 S10       29.76F HX  81
CRESTON *      SUNNY     79  61  53 S15G25    29.80S HX  80
HARLAN  *      SUNNY     79  63  57 SW12G21   29.80S HX  80
LAMONI         SUNNY     80  59  48 S20G26    29.81F HX  81
RED OAK *      SUNNY     79  61  53 S10G22    29.78R HX  80
SHENANDOAH *   SUNNY     82  61  47 S18       29.77S HX  83
$$

IAZ047>049-059>061-072>074-084-032000-
   CENTRAL IOWA

CITY           SKY/WX    TMP DP  RH WIND       PRES   REMARKS
AMES           SUNNY     79  60  52 S12G20    29.79F HX  80
ANKENY *       SUNNY     79  59  50 S12G20    29.80F HX  80
CHARITON *     SUNNY     79  61  53 S16G24    29.82F HX  80
DES MOINES     MOSUNNY   80  58  46 S14G21    29.80F HX  80
GRINNELL*      MOSUNNY   79  57  47 S17G23    29.84S HX  80
KNOXVILLE *    SUNNY     79  59  50 S14G20    29.81F HX  80
MARSHALLTOWN   SUNNY     79  60  52 S14       29.81F HX  80
PELLA *        SUNNY     79  64  61 S17       29.84F HX  81
PERRY *          N/A     81  57  44 S16G22    29.78F HX  81
$$

IAZ004>006-015-016-023>025-035-036-032000-
   NORTH CENTRAL IOWA

CITY           SKY/WX    TMP DP  RH WIND       PRES   REMARKS
ALGONA *       SUNNY     82  55  39 SE8G15    29.77F HX  82
CLARION *      SUNNY     82  57  42 S13G20    29.78F HX  82
ESTHERVILLE    MOSUNNY   80  52  37 CALM      29.77F HX  80
FORT DODGE *   SUNNY     82  61  47 S10       29.78S HX  83
MASON CITY     SUNNY     82  53  36 VRB3      29.80F HX  81
FOREST CITY *  SUNNY     81  52  36 S5        29.78F HX  80
IOWA FALLS *     N/A     79  61  53 S9G16     29.82S HX  80
$$

IAZ007>011-017>019-026>030-037>042-050>054-066-032000-
   NORTHEAST IOWA

CITY           SKY/WX    TMP DP  RH WIND       PRES   REMARKS
CEDAR RAPIDS   MOSUNNY   72  63  73 S14G21    29.86F
CHARLES CITY * SUNNY     79  57  47 VRB5G15   29.81F HX  80
CLINTON *        N/A     61  55  82 N16       29.96R
DECORAH *      SUNNY     79  54  41 S8G16     29.81F
DUBUQUE        PTSUNNY   64  60  87 S15       29.89S
MONTICELLO *   MOSUNNY   68  64  88 SE10G17   29.88S
OELWEIN *      SUNNY     79  57  47 SW15      29.84S HX  80
WATERLOO       SUNNY     78  59  51 S12       29.81F
$$

IAZ064-065-067-068-078-032000-
   EAST CENTRAL IOWA

CITY           SKY/WX    TMP DP  RH WIND       PRES   REMARKS
DAVENPORT      CLOUDY    67  59  75 N7        29.91R
IOWA CITY      MOSUNNY   71  60  68 E7        29.88F
MT. PLEASANT * MOSUNNY   81  54  39 SW20G28   29.87F HX  80
MUSCATINE *    MOSUNNY   81  59  47 SW17G28   29.87F HX  81
QUAD CITIES    CLOUDY    76  58  53 NW8       29.88S
$$

IAZ062-063-075>077-085>089-095>099-032000-
   SOUTHEAST IOWA

CITY           SKY/WX    TMP DP  RH WIND       PRES   REMARKS
BURLINGTON     MOSUNNY   82  56  40 SW20G30   29.89S HX  82
FAIRFIELD *    SUNNY     81  57  44 S16G26    29.86F HX  81
FORT MADISON * SUNNY     82  55  39 S13G24    29.89F HX  82
KEOKUK *       MOSUNNY   81  59  47 SW16G22   29.88F HX  81
OSKALOOSA *      N/A     81  55  41 SW17G24   29.85S HX  80
CENTERVILLE *  SUNNY     79  59  50 S14       29.86S HX  80
OTTUMWA        MOSUNNY   81  59  47 S13       29.84F HX  81
WASHINGTON *   SUNNY     81  64  57 SW16G24   29.86S HX  82
$$

ABBREVIATIONS USED IN REMARKS
   TC - TEMPERATURES IN CELSIUS
  WCI - WIND CHILL INDEX
   HX - HEAT INDEX
  VSB - VISIBILITY
$$



USA.gov is the U.S. government's official web portal to all federal, state and local government web resources and services.